Theta_e
348 348 347 347 347 348 347 347 347 347 348 348 349 349 347 347 347 344 350 351 350 352 351 350 351 350 349 350 349 349 348 345 343 344 344 348 348 347 346 344 341 339 338
349 349 348 349 348 348 347 347 349 349 348 350 351 349 349 349 350 350 351 351 351 351 351 350 351 351 351 350 351 350 347 347 345 342 346 346 346 345 345 343 341 338 337
350 350 350 349 348 349 348 347 348 350 348 348 350 350 349 348 348 348 349 349 350 352 352 351 350 350 351 350 350 350 349 346 348 345 343 345 344 344 343 340 339 337 335
351 350 350 349 348 349 350 349 348 347 347 347 346 346 347 345 346 348 349 349 348 348 350 351 352 352 352 352 350 350 350 350 348 346 341 341 341 342 342 340 336 335 333
351 351 350 350 350 349 349 349 348 349 349 351 351 349 346 349 349 349 350 351 351 350 350 350 349 350 352 353 351 350 350 350 349 346 343 342 343 341 340 338 337 336 334
352 351 351 351 351 352 352 351 351 352 352 353 353 353 353 351 351 352 352 352 353 352 353 352 351 350 350 351 351 350 350 350 350 347 344 345 345 342 340 339 337 333 331
351 351 351 351 352 353 352 353 353 353 353 353 353 353 354 354 353 352 353 353 353 351 351 352 351 352 350 350 350 351 351 351 349 350 348 346 345 345 342 340 338 337 337
350 350 350 350 350 351 352 352 353 352 353 353 353 353 353 353 353 353 353 352 351 350 351 351 351 352 352 351 349 349 350 351 352 349 350 350 349 347 346 345 343 338 337
350 350 349 350 350 350 351 351 351 351 353 353 353 352 350 350 347 347 348 346 346 348 349 350 351 352 352 351 351 349 348 348 350 351 350 350 350 348 348 345 340 336 332
351 350 350 351 353 355 356 357 355 356 354 352 348 346 343 343 340 340 340 340 342 343 342 343 347 348 348 349 351 350 349 349 348 348 349 349 347 347 347 347 344 338 335
352 352 352 353 355 359 358 354 352 349 346 343 338 332 330 330 331 333 335 336 337 338 340 343 346 346 346 346 349 350 350 349 349 349 347 347 347 347 346 346 346 343 337
354 354 356 358 359 355 351 346 343 339 332 327 326 326 327 327 327 327 325 325 327 329 333 337 339 341 346 347 348 348 349 348 348 348 348 347 346 346 346 346 345 345 343
356 357 358 355 352 348 344 336 330 326 324 324 326 325 325 326 326 325 324 323 323 324 328 333 336 339 342 343 346 347 346 346 346 344 345 345 347 346 345 344 343 343 342
356 352 349 347 341 337 333 328 326 325 326 325 325 325 325 325 325 323 321 321 321 323 324 328 333 336 339 340 341 344 344 345 344 343 343 345 344 345 344 343 344 341 339
343 344 341 337 335 332 329 329 329 328 328 326 325 326 325 326 326 324 323 323 323 323 323 325 329 333 336 337 339 340 340 341 342 342 341 342 343 343 343 343 340 337 336
338 336 335 335 334 331 331 329 329 330 329 326 325 325 326 326 326 325 324 324 325 325 323 323 325 330 332 334 336 337 339 340 341 341 341 341 341 342 341 341 339 335 334
332 336 335 334 332 331 331 331 330 329 330 329 325 324 324 323 324 325 325 323 324 324 323 325 326 328 330 332 333 334 335 336 336 337 337 338 338 339 339 338 337 336 333
329 336 335 332 331 333 333 333 331 329 329 329 326 324 323 322 323 323 326 324 323 321 322 323 323 325 326 327 329 330 331 332 332 333 334 334 335 336 336 336 335 333 331
337 337 333 332 333 334 334 333 332 330 329 329 330 325 323 322 322 322 325 325 324 322 321 321 322 322 322 323 324 325 327 328 328 328 329 329 330 330 331 331 331 330 328
338 335 335 336 336 336 336 336 335 333 331 331 330 330 325 322 323 323 322 324 326 325 324 323 322 321 320 322 322 323 324 324 325 325 325 326 327 327 327 327 327 327 325
338 338 338 337 337 336 334 334 334 333 332 332 332 332 330 325 321 323 324 324 324 326 325 325 323 323 323 322 323 323 323 324 324 324 324 325 325 325 325 325 325 324 322
339 336 336 336 335 333 333 333 334 333 332 332 332 331 331 330 326 321 322 325 325 325 326 325 325 323 323 323 323 323 323 324 324 324 324 324 324 324 324 324 324 324 323
337 335 335 335 335 335 333 331 332 332 330 330 329 330 330 330 330 328 323 324 324 325 325 326 326 325 324 323 323 323 324 324 324 324 325 325 325 324 323 323 322 322 322
336 336 336 336 335 333 332 331 331 329 329 329 327 326 326 326 328 329 326 325 325 324 325 325 326 326 326 325 324 323 323 323 324 323 323 323 323 322 321 321 319 318 317
336 336 337 336 337 337 334 330 329 330 330 329 328 326 323 322 324 325 323 323 326 325 323 325 325 325 326 326 326 325 324 323 323 323 323 323 321 319 319 319 321 321 320
337 337 336 332 333 333 334 334 333 332 331 329 329 328 324 323 324 323 323 322 320 321 324 324 325 325 325 326 326 326 326 325 324 323 322 322 321 319 318 320 320 320 319
Wind_Speed
30 31 30 31 31 26 25 21 19 17 14 12 13 12 11 9 9 10 10 10 13 12 12 13 12 10 10 11 13 13 11 15 10 6 10 11 14 17 18 16 17 16 15
31 30 30 30 30 30 27 25 21 19 16 13 12 13 13 13 12 12 13 13 14 14 15 14 14 13 13 12 13 13 13 15 16 10 11 11 16 19 19 18 18 18 16
27 28 29 28 29 31 31 28 24 23 22 21 18 18 17 17 17 17 17 17 16 17 15 15 16 15 15 16 15 15 14 16 16 11 11 15 10 19 18 17 18 17 16
25 27 29 28 28 30 28 27 27 26 25 24 25 24 24 23 21 18 17 17 17 18 17 18 19 19 18 18 17 18 16 14 18 18 13 15 16 18 20 22 22 20 19
27 28 29 26 25 25 26 24 24 24 24 22 22 22 23 22 21 19 19 19 19 20 20 20 21 21 20 20 20 19 19 17 17 18 16 12 14 15 25 24 23 24 21
29 30 27 26 25 25 24 23 23 24 24 23 22 22 21 23 21 20 20 21 21 22 22 21 20 20 22 23 24 23 22 21 22 21 20 16 20 24 25 26 22 14 7
31 30 28 26 26 25 23 24 25 25 23 23 23 22 22 21 20 19 20 23 24 23 25 25 22 22 23 24 24 24 25 24 24 24 26 29 23 30 27 25 27 24 17
32 31 29 26 24 23 23 23 23 24 24 24 23 23 22 19 18 17 17 16 18 20 22 24 23 24 23 24 25 25 25 25 24 26 29 29 28 30 36 35 34 24 19
33 33 29 26 25 25 24 26 26 24 23 24 19 14 17 12 10 14 17 18 19 22 22 21 21 22 22 22 24 25 25 25 24 24 24 28 27 27 29 31 23 23 11
32 36 32 27 24 23 22 21 19 18 13 10 5 7 10 14 16 18 18 19 19 22 26 25 23 23 23 22 22 24 26 28 26 26 25 26 25 25 26 32 32 26 15
30 30 28 24 23 22 20 13 10 9 6 3 3 6 8 10 13 16 20 21 19 18 19 19 22 21 19 19 19 23 25 25 24 22 23 24 24 23 25 29 33 33 28
28 26 25 22 21 19 15 13 9 6 5 3 2 4 7 10 13 15 17 17 18 19 19 22 22 20 19 18 17 18 17 16 20 20 20 22 23 26 27 30 34 34 35
27 24 24 23 22 20 18 16 15 11 7 4 3 7 11 15 16 16 16 16 17 19 20 15 16 18 16 16 16 18 15 16 17 18 20 24 27 26 25 25 27 31 31
33 29 28 27 24 19 17 17 16 13 9 4 5 8 12 15 19 20 21 22 20 18 16 18 17 15 13 15 18 19 20 17 15 16 17 18 17 17 19 22 22 27 26
18 34 31 28 26 24 20 16 13 10 7 5 4 6 10 16 19 19 21 24 21 19 20 19 16 13 12 13 14 13 15 14 16 18 17 18 18 16 17 20 22 23 21
15 7 26 30 28 26 20 15 11 9 6 2 2 5 8 11 16 20 23 21 17 15 14 13 13 14 13 13 13 12 11 11 12 12 14 15 16 17 20 20 22 21 18
5 25 23 28 28 25 19 16 13 9 7 3 2 4 7 11 14 17 21 23 14 12 10 11 11 12 12 12 12 11 12 10 10 12 14 17 16 16 18 18 21 21 20
20 30 28 30 26 23 20 18 13 12 7 7 4 6 6 9 12 15 17 18 22 15 12 12 12 10 9 9 9 9 9 8 8 8 10 11 13 15 17 18 18 18 15
49 36 28 24 23 23 22 18 15 12 11 12 7 8 7 9 11 10 13 13 15 16 15 14 12 12 11 10 8 7 7 6 5 5 6 7 7 9 11 12 13 12 11
28 27 25 25 26 25 22 18 15 15 15 17 15 12 9 10 9 10 10 12 14 14 14 14 13 11 10 9 8 7 7 7 5 3 3 3 4 5 6 6 7 9 11
26 25 29 29 27 24 19 18 16 15 16 20 22 15 13 14 14 14 13 10 12 13 13 11 11 11 10 10 8 8 8 6 6 6 4 3 2 3 4 7 8 8 11
25 25 25 25 24 18 17 15 14 14 16 22 23 18 17 20 19 18 17 15 12 11 11 9 8 8 7 7 7 6 6 6 6 6 5 5 4 5 9 12 13 14 15
25 23 22 20 18 16 16 13 10 12 15 18 16 17 18 22 22 20 18 15 14 13 11 10 8 7 7 6 5 5 6 7 6 5 6 7 7 7 9 9 7 7 10
22 19 16 15 13 15 16 15 11 15 15 15 13 12 13 15 18 20 19 16 15 16 15 13 12 9 8 7 7 5 4 3 3 2 2 2 4 4 4 3 2 2 5
22 17 14 15 15 17 18 18 19 19 15 15 15 12 10 12 15 16 13 13 13 16 16 17 14 12 12 11 9 8 7 6 6 7 7 8 8 8 8 7 7 8 11
19 18 15 14 14 14 20 24 21 18 17 16 16 15 14 15 16 17 16 14 14 16 17 17 19 16 15 16 15 13 12 11 11 10 11 13 13 14 15 15 14 14 15
Wind_Direction
221 223 225 229 227 228 228 230 235 237 244 251 250 243 253 252 248 252 254 266 263 263 271 269 275 278 270 251 248 253 240 221 221 262 253 237 222 202 215 216 221 217 217
223 222 226 230 228 230 232 231 230 233 237 243 244 245 246 250 253 258 259 259 264 267 274 273 271 268 271 270 259 253 244 229 231 223 215 206 212 212 216 213 216 217 220
222 224 225 228 230 231 234 233 234 241 248 249 245 245 249 252 254 255 257 262 264 264 269 269 275 277 271 266 262 257 249 239 225 207 201 198 195 204 206 219 215 223 222
220 224 225 227 230 230 236 238 242 247 248 248 247 252 257 263 259 257 260 264 267 267 267 268 270 271 272 275 267 256 250 238 224 220 221 195 200 211 215 209 210 220 221
214 218 224 225 229 229 235 240 242 243 243 248 251 255 257 260 262 264 265 265 267 270 269 267 267 267 267 269 272 271 251 237 228 222 218 203 194 187 201 206 210 219 222
215 218 222 225 229 234 235 237 243 247 249 254 258 265 271 272 274 273 274 271 270 271 272 272 269 264 264 264 265 266 261 247 234 227 219 210 206 208 201 204 199 195 221
216 220 223 225 228 234 241 244 247 251 255 258 260 262 266 273 280 280 276 271 268 271 272 271 272 270 269 266 261 260 256 257 254 253 231 229 219 216 207 205 206 206 214
216 222 225 227 231 237 242 247 253 257 261 264 269 269 268 273 280 280 285 282 275 270 269 272 272 272 273 272 265 262 254 250 253 248 244 248 249 244 234 230 223 210 218
217 223 227 231 234 237 239 245 252 255 255 257 265 271 279 289 299 291 287 287 281 277 276 276 274 272 273 274 275 262 261 254 251 255 254 250 246 245 244 223 200 189 203
219 222 222 225 230 237 239 241 236 233 233 234 246 286 297 295 298 299 299 299 294 285 281 277 276 274 272 271 266 263 258 259 254 248 250 254 254 253 238 236 222 197 198
223 224 220 213 216 218 214 205 196 180 170 192 275 295 305 303 299 295 292 293 293 292 283 285 282 277 277 268 262 258 258 265 263 261 256 252 252 244 232 233 232 223 203
220 217 206 190 197 193 174 156 154 150 137 107 15 334 332 324 315 308 306 302 292 289 288 283 280 284 274 270 258 258 260 258 258 258 256 256 249 239 235 233 235 238 238
194 186 186 176 166 166 165 154 139 136 126 101 40 357 344 342 335 326 317 311 308 297 280 283 275 272 267 259 253 253 254 253 251 255 252 253 253 253 253 244 237 238 239
172 179 172 159 150 156 154 150 141 139 124 85 21 8 357 7 1 354 335 324 318 314 301 281 276 281 274 270 260 255 250 250 251 254 256 260 262 252 249 244 222 221 222
153 157 160 153 152 155 151 153 153 138 105 81 20 7 358 351 351 353 339 326 315 308 301 292 279 272 273 278 271 261 260 251 249 252 255 254 253 253 248 242 233 220 213
11 170 155 153 160 159 157 164 168 146 136 110 35 4 345 342 344 351 345 336 328 317 305 294 286 283 282 278 277 273 263 257 256 258 249 247 249 247 234 229 232 227 222
130 264 174 162 163 164 171 185 167 184 189 205 298 322 333 341 345 348 348 354 344 349 339 329 306 299 292 289 283 279 273 266 262 260 262 255 253 252 240 233 233 232 231
216 218 185 170 170 174 186 199 190 197 201 235 249 274 300 320 329 339 347 357 14 9 360 351 340 330 319 308 299 290 286 286 269 265 264 261 254 250 247 237 232 228 223
201 193 180 175 184 194 202 209 211 217 233 250 250 267 288 303 319 335 349 357 1 1 8 13 1 355 355 348 335 318 297 280 271 269 268 263 264 260 258 258 256 247 221
188 180 180 188 202 208 212 218 219 229 238 247 247 255 274 280 296 320 339 348 359 354 357 8 12 14 14 16 12 12 3 354 348 331 304 286 267 250 247 249 245 235 211
188 191 200 203 205 198 202 210 216 228 242 246 251 253 260 266 276 284 297 323 341 343 345 354 4 12 20 35 33 43 41 39 42 41 39 57 75 129 161 155 147 158 161
191 190 188 194 195 196 204 218 220 233 247 257 262 266 254 257 264 275 286 298 308 310 324 333 340 347 4 10 27 41 47 45 55 62 64 77 93 124 132 132 129 129 134
191 187 186 191 205 219 216 222 230 235 248 242 257 270 268 257 261 270 281 294 304 295 289 300 314 328 342 345 356 18 21 23 45 62 85 102 119 127 130 125 127 132 147
193 197 194 208 216 228 229 230 232 237 245 257 271 272 273 273 266 268 277 286 294 297 286 277 281 292 307 322 333 341 347 344 338 321 279 222 192 185 187 181 163 157 179
186 197 206 218 236 236 240 239 237 245 242 248 256 259 262 273 273 272 277 284 289 283 286 288 280 283 290 298 303 311 315 306 287 266 255 251 251 236 223 235 256 271 262
192 200 214 228 227 234 241 245 245 250 243 244 251 260 265 266 270 274 276 280 275 279 278 280 288 292 293 285 280 279 276 272 270 267 261 257 254 248 250 262 272 281 280